Weather History for Ashtabula, OH

Change the Weather History Date:

Tuesday, February 18, 2014

  Actual Average (KYNG) Record (KYNG)
Temperature  
Mean Temperature 30 °F 29 °F  
Max Temperature 37 °F 37 °F 59 °F (1994)
Min Temperature 23 °F 21 °F -8 °F (1979)
Degree Days  
Heating Degree Days 35 36  
Month to date heating degree days 677  
Since 1 July heating degree days 4300  
Cooling Degree Days 0 0  
Month to date cooling degree days 0  
Year to date cooling degree days 0  
Moisture  
Dew Point 22 °F    
Average Humidity 77    
Maximum Humidity 93    
Minimum Humidity 54    
Precipitation  
Precipitation 0.06 in 0.07 in 0.69 in (1976)
Month to date precipitation 1.34  
Year to date precipitation 3.89  
Snow  
Snow 0.00 in 0.50 in - ()
Month to date snowfall 8.1  
Since 1 July snowfall 44.1  
Snow Depth -    
Sea Level Pressure  
Sea Level Pressure 29.83 in    
Wind  
Wind Speed 17 mph (WSW)    
Max Wind Speed 26 mph    
Max Gust Speed 33 mph    
Visibility 3 miles    
Events Snow    
T = Trace of Precipitation, MM = Missing Value Source: NWS Daily Summary

Daily Weather History Graph

Daily Weather History Graph

Search for Another Location

Airport:

Trip Planner

Search our weather history database for the weather conditions in past years. The results will help you decide how hot, cold, wet, or windy it might be!

Date:

Astronomy

Feb. 18, 2014 Rise Set
Actual Time 7:14 AM EST 5:59 PM EST
Civil Twilight 6:45 AM EST 6:28 PM EST
Nautical Twilight 6:13 AM EST 7:00 PM EST
Astronomical Twilight 5:41 AM EST 7:32 PM EST
Moon 9:55 PM EST (2/18) 8:42 AM EST (2/18)
Length of Visible Light 11h 42m
Length of Day
10h 45m
Waning Gibbous, 87% of the Moon is Illuminated
Feb 18
Waning Gibbous
Feb 22
Last Quarter
Mar 1
New
Mar 8
First Quarter
Mar 16
Full

Hourly Weather History & Observations

Time (EST) Temp. Windchill Dew Point Humidity Pressure Visibility Wind Dir Wind Speed Gust Speed Precip Events Conditions
12:00 AM 26.6 °F 12.0 °F 21.2 °F 80% 29.68 in 2.5 mi SSE 23.0 mph 32.2 mph 0.00 in Snow Light Snow
12:28 AM 28.4 °F 15.4 °F 23.0 °F 80% 29.68 in 1.5 mi South 19.6 mph 32.2 mph 0.00 in Snow Light Snow
12:40 AM 28.4 °F 16.2 °F 23.0 °F 80% 29.68 in 2.5 mi South 17.3 mph 28.8 mph 0.00 in Snow Light Snow
12:53 AM 30.0 °F 18.3 °F 24.1 °F 79% 29.70 in 4.0 mi South 17.3 mph 26.5 mph 0.00 in Snow Light Snow
1:12 AM 30.2 °F 17.8 °F 24.8 °F 80% 29.67 in 2.5 mi South 19.6 mph 26.5 mph 0.00 in Snow Light Snow
1:22 AM 30.2 °F 17.4 °F 24.8 °F 80% 29.67 in 1.5 mi South 20.7 mph 25.3 mph 0.00 in Snow Light Snow
1:32 AM 30.2 °F 18.1 °F 26.6 °F 86% 29.69 in 1.8 mi South 18.4 mph 26.5 mph 0.00 in Snow Light Snow
1:41 AM 30.2 °F 19.8 °F 26.6 °F 86% 29.69 in 2.5 mi South 13.8 mph 23.0 mph 0.00 in Snow Light Snow
1:53 AM 30.0 °F 19.1 °F 26.1 °F 85% 29.72 in 1.5 mi South 15.0 mph - 0.00 in Snow Light Snow
2:02 AM 30.2 °F 19.8 °F 26.6 °F 86% 29.68 in 1.5 mi South 13.8 mph - 0.00 in Snow Light Snow
2:26 AM 30.2 °F 20.2 °F 28.4 °F 93% 29.69 in 2.0 mi SSW 12.7 mph 20.7 mph 0.00 in Snow Light Snow
2:36 AM 32.0 °F 20.5 °F 26.6 °F 80% 29.69 in 1.8 mi SW 18.4 mph 25.3 mph 0.00 in Snow Light Snow
2:38 AM 32.0 °F 21.2 °F 26.6 °F 80% 29.69 in 1.8 mi SW 16.1 mph 25.3 mph 0.00 in Snow Light Snow
2:45 AM 32.0 °F 19.8 °F 26.6 °F 80% 29.69 in 3.0 mi SW 20.7 mph 26.5 mph 0.00 in Snow Light Snow
2:53 AM 32.0 °F 21.6 °F 26.1 °F 79% 29.72 in 3.0 mi SW 15.0 mph 26.5 mph 0.00 in Snow Light Snow
3:06 AM 32.0 °F 20.8 °F 24.8 °F 75% 29.69 in 3.0 mi SW 17.3 mph 29.9 mph 0.00 in Snow Light Snow
3:13 AM 30.2 °F 17.8 °F 26.6 °F 86% 29.69 in 1.8 mi SW 19.6 mph - 0.00 in Snow Light Snow
3:25 AM 30.2 °F 21.3 °F 26.6 °F 86% 29.69 in 1.0 mi SW 10.4 mph - 0.00 in Snow Light Snow
3:31 AM 30.2 °F 22.6 °F 26.6 °F 86% 29.69 in 0.8 mi SW 8.1 mph - 0.00 in Snow Light Snow
3:45 AM 30.2 °F 16.8 °F 26.6 °F 86% 29.69 in 1.0 mi WSW 23.0 mph 33.4 mph 0.00 in Snow Light Snow
3:50 AM 30.2 °F 15.9 °F 26.6 °F 86% 29.70 in 1.2 mi WSW 26.5 mph 33.4 mph 0.00 in Snow Light Snow
3:53 AM 30.0 °F 16.0 °F 25.0 °F 82% 29.72 in 1.2 mi SW 25.3 mph 33.4 mph 0.00 in Snow Light Snow
4:02 AM 30.2 °F 16.8 °F 24.8 °F 80% 29.70 in 1.0 mi WSW 23.0 mph 32.2 mph 0.00 in Snow Light Snow
4:15 AM 30.2 °F 17.4 °F 24.8 °F 80% 29.71 in 1.5 mi WSW 20.7 mph 27.6 mph 0.00 in Snow Light Snow
4:32 AM 28.4 °F 15.1 °F 24.8 °F 86% 29.72 in 1.0 mi WSW 20.7 mph 26.5 mph 0.00 in Snow Light Snow
4:40 AM 28.4 °F 17.0 °F 24.8 °F 86% 29.72 in 0.8 mi West 15.0 mph 26.5 mph 0.00 in Snow Light Snow
4:53 AM 28.0 °F 17.0 °F 24.1 °F 85% 29.77 in 1.0 mi West 13.8 mph 24.2 mph 0.00 in Snow Light Snow
5:03 AM 28.4 °F 16.2 °F 24.8 °F 86% 29.74 in 0.8 mi WNW 17.3 mph 25.3 mph 0.00 in Snow Light Snow
5:17 AM 26.6 °F 14.7 °F 21.2 °F 80% 29.76 in 1.0 mi West 15.0 mph 27.6 mph 0.00 in Snow Light Snow
5:33 AM 24.8 °F 10.3 °F 19.4 °F 80% 29.77 in 1.2 mi West 20.7 mph 28.8 mph 0.00 in Snow Light Snow
5:46 AM 24.8 °F 10.7 °F 19.4 °F 80% 29.78 in 2.0 mi West 19.6 mph - 0.00 in Snow Light Snow
5:53 AM 25.0 °F 12.2 °F 19.9 °F 81% 29.82 in 1.8 mi West 16.1 mph 24.2 mph 0.00 in Snow Light Snow
6:49 AM 24.8 °F 11.9 °F 19.4 °F 80% 29.82 in 0.8 mi West 16.1 mph 23.0 mph 0.00 in Snow Light Snow
6:53 AM 24.1 °F 12.0 °F 19.9 °F 84% 29.86 in 0.8 mi WNW 13.8 mph 23.0 mph 0.00 in Snow Light Snow
7:01 AM 23.0 °F 8.7 °F 19.4 °F 86% 29.83 in 0.8 mi West 18.4 mph 32.2 mph 0.00 in Snow Light Snow
7:06 AM 23.0 °F 8.3 °F 17.6 °F 80% 29.84 in 1.2 mi West 19.6 mph 32.2 mph 0.00 in Snow Light Snow
7:11 AM 23.0 °F 9.2 °F 17.6 °F 80% 29.84 in 3.0 mi West 17.3 mph 26.5 mph 0.00 in Snow Light Snow
7:29 AM 23.0 °F 8.0 °F 17.6 °F 80% 29.86 in 1.8 mi West 20.7 mph 28.8 mph 0.00 in Snow Light Snow
7:48 AM 23.0 °F 8.7 °F 17.6 °F 80% 29.87 in 2.0 mi West 18.4 mph 27.6 mph 0.00 in Snow Light Snow
7:53 AM 23.0 °F 8.7 °F 17.1 °F 78% 29.91 in 1.5 mi West 18.4 mph 25.3 mph 0.00 in Snow Light Snow
8:01 AM 23.0 °F 10.6 °F 17.6 °F 80% 29.89 in 0.8 mi West 13.8 mph - 0.00 in Snow Light Snow
8:14 AM 23.0 °F 11.1 °F 17.6 °F 80% 29.90 in 0.8 mi West 12.7 mph - 0.00 in Snow Light Snow
8:25 AM 23.0 °F 10.1 °F 17.6 °F 80% 29.91 in 0.5 mi West 15.0 mph - 0.00 in Snow Snow
8:35 AM 23.0 °F 11.1 °F 17.6 °F 80% 29.91 in 0.5 mi WNW 12.7 mph 23.0 mph 0.00 in Snow Snow
8:49 AM 23.0 °F 8.3 °F 17.6 °F 80% 29.92 in 1.0 mi West 19.6 mph 25.3 mph 0.00 in Snow Light Snow
8:53 AM 23.0 °F 7.6 °F 17.1 °F 78% 29.96 in 1.2 mi West 21.9 mph 28.8 mph 0.00 in Snow Light Snow
9:03 AM 23.0 °F 8.7 °F 17.6 °F 80% 29.93 in 1.0 mi West 18.4 mph 26.5 mph 0.00 in Snow Light Snow
9:10 AM 23.0 °F 10.1 °F 17.6 °F 80% 29.93 in 1.8 mi WNW 15.0 mph 26.5 mph 0.00 in Snow Light Snow
9:17 AM 23.0 °F 10.1 °F 15.8 °F 74% 29.94 in 2.5 mi West 15.0 mph 26.5 mph 0.00 in Snow Light Snow
9:40 AM 24.8 °F 11.9 °F 15.8 °F 69% 29.95 in 3.0 mi West 16.1 mph 24.2 mph 0.00 in Snow Light Snow
9:49 AM 24.8 °F 11.1 °F 17.6 °F 74% 29.95 in 2.5 mi West 18.4 mph 26.5 mph 0.00 in Snow Light Snow
9:53 AM 24.1 °F 11.5 °F 17.1 °F 75% 30.00 in 3.0 mi West 15.0 mph 26.5 mph 0.00 in Snow Light Snow
10:03 AM 24.8 °F 13.4 °F 17.6 °F 74% 29.96 in 2.5 mi West 12.7 mph 24.2 mph 0.00 in Snow Light Snow
10:12 AM 24.8 °F 10.3 °F 17.6 °F 74% 29.97 in 3.0 mi West 20.7 mph 27.6 mph 0.00 in Snow Light Snow
10:53 AM 25.0 °F 11.7 °F 16.0 °F 69% 30.03 in 8.0 mi West 17.3 mph 29.9 mph 0.00 in   Overcast
11:53 AM 26.1 °F 14.5 °F 17.1 °F 69% 30.05 in 8.0 mi WNW 13.8 mph - N/A   Overcast
12:53 PM 28.0 °F 17.5 °F 18.0 °F 66% 30.04 in 10.0 mi WSW 12.7 mph 19.6 mph N/A   Overcast
1:53 PM 30.0 °F 20.0 °F 18.0 °F 61% 30.05 in 10.0 mi WSW 12.7 mph - N/A   Scattered Clouds
2:53 PM 32.0 °F 23.0 °F 19.0 °F 59% 30.03 in 10.0 mi SSW 11.5 mph - 0.01 in   Clear
3:53 PM 33.1 °F 24.4 °F 19.0 °F 56% 30.04 in 10.0 mi SW 11.5 mph - 0.01 in   Clear
4:53 PM 34.0 °F 26.0 °F 19.9 °F 56% 30.02 in 9.0 mi SSW 10.4 mph - 0.02 in   Clear
5:53 PM 32.0 °F 25.6 °F 21.0 °F 64% 30.00 in 8.0 mi SSE 6.9 mph - 0.01 in   Clear
6:53 PM 33.1 °F 24.9 °F 23.0 °F 66% 30.00 in 8.0 mi South 10.4 mph - N/A   Clear
7:53 PM 34.0 °F 26.0 °F 25.0 °F 70% 29.95 in 8.0 mi South 10.4 mph - N/A   Clear
8:53 PM 32.0 °F 23.6 °F 24.1 °F 73% 29.94 in 9.0 mi South 10.4 mph - N/A   Clear
9:53 PM 36.0 °F 27.1 °F 24.1 °F 62% 29.89 in 10.0 mi South 13.8 mph - N/A   Clear
10:53 PM 37.0 °F 29.3 °F 23.0 °F 57% 29.86 in 10.0 mi South 11.5 mph 18.4 mph N/A   Clear
11:53 PM 37.0 °F 29.8 °F 21.9 °F 54% 29.84 in 10.0 mi SSE 10.4 mph - 0.01 in   Clear